Location: Guferjoch
(46.7462°N, 8.4506°E)
Time: 23:42:38
(UTC+00:00)

Cosmos 1271 Rocket - Pass Details

Date: 14 July 2020
Orbit: 498 x 546 km, 81.2° (Epoch: 14 August)

Event Time Altitude Azimuth Distance (km) Brightness Sun altitude
Rises 02:41:03 0° 350° (N) 2,630 6.8 -9.5°
Reaches altitude 10° 02:43:13 10° 352° (N) 1,732 5.9 -9.2°
Maximum altitude 02:47:00 76° 78° (ENE) 524 2.8 -8.7°
Drops below altitude 10° 02:50:44 10° 165° (SSE) 1,700 5.0 -8.3°
Sets 02:52:50 0° 167° (SSE) 2,575 5.9 -8.0°
